Location: Brunembert
(50.7122°N, 1.8935°E)
Time: 03:33:46
(UTC+00:00)

Cosmos 1869 - Pass Details

Date: 22 April 2021
Orbit: 518 x 563 km, 82.5° (Epoch: 06 May)

Event Time Altitude Azimuth Distance (km) Brightness Sun altitude
Exits shadow 20:47:58 26° 158° (SSE) 1,079 4.3 -15.3°
Maximum altitude 20:49:52 50° 95° (E) 690 3.5 -15.5°
Drops below altitude 10° 20:53:41 10° 20° (NNE) 1,797 6.3 -16.0°
Sets 20:55:52 0° 15° (NNE) 2,685 7.3 -16.2°
